Home > Weather > Neuwied > Past weeks

Flag for Germany Past Weather in Neuwied, Rhineland-Palatinate, Germany — Yesterday and Last 2 Weeks

Now
73 °F

Broken clouds.


Feels Like: 76 °F
Forecast: 60 / 77 °F
Wind: 7 mph from Northwest

Location: Buechel

Current Time: Jul 25, 2016 at 6:07:01 PM

Latest Report: Jul 25, 2016 at 5:20 PM


Visibility: N/A

Pressure: 30.12 "Hg

Humidity: 61%

Dew Point: 59 °F

Location of NeuwiedLocation

Past Weather in Neuwied — Graph

°F

Neuwied Temperature Yesterday

Maximum temperature yesterday: 73 °F (at 2:20 PM)
Minimum temperature yesterday: 63 °F (at 2:20 AM)
Average temperature yesterday: 68 °F

High & Low Weather Summary for the Past Weeks

 TemperatureHumidityPressure
High88 °F (Jul 20, 4:20 PM)100% (Jul 13, 5:20 AM)30.33 "Hg (Jul 13, 5:20 AM)
Low45 °F (Jul 15, 5:20 AM)38% (Jul 20, 4:20 PM)29.86 "Hg (Jul 10, 8:20 PM)
Average65 °F74%30.10 "Hg
* Reported Jul 10 4:20 PM — Jul 25 4:20 PM, Neuwied, Weather by CustomWeather, © 2016

Note: Actual official high and low records may vary slightly from our data, if they occured in-between our weather recording intervals... More about our weather records

Advertising

Neuwied Weather History for the Previous 24 Hours

Scroll right to see more
 ConditionsComfort  
Time TempWeatherWind HumidityBarometerVisibility
4:20 PM
Mon, Jul 25
73 °FPartly sunny.6 mph61%30.12 "HgN/A
3:20 PM73 °FBroken clouds.8 mph61%30.12 "HgN/A
2:20 PM75 °FBroken clouds.7 mph57%30.12 "HgN/A
1:20 PM73 °FBroken clouds.6 mph57%30.15 "HgN/A
12:20 PM72 °FPartly sunny.6 mph65%30.15 "HgN/A
11:20 AM70 °FBroken clouds.3 mph69%30.15 "HgN/A
10:20 AM68 °FPartly sunny.3 mph73%30.15 "HgN/A
9:20 AM66 °FPartly sunny.5 mph73%30.15 "HgN/A
8:20 AM64 °FPartly sunny.1 mph78%30.12 "HgN/A
7:20 AM63 °FBroken clouds.6 mph83%30.12 "Hg5 mi
6:20 AM63 °FPassing clouds.6 mph88%30.12 "Hg5 mi
4:20 AM64 °FMild.7 mph83%30.12 "Hg4 mi
3:20 AM64 °FMild.5 mph83%30.12 "Hg4 mi
2:20 AM66 °FMild.5 mph78%30.12 "Hg4 mi
1:20 AM66 °FMild.6 mph78%30.12 "Hg5 mi
12:20 AM66 °FMild.5 mph78%30.12 "Hg4 mi
11:20 PM
Sun, Jul 24
66 °FMild.6 mph78%30.12 "Hg4 mi
10:20 PM68 °FMild.5 mph78%30.12 "Hg5 mi
9:20 PM72 °FMild.5 mph69%30.12 "Hg6 mi
8:20 PM73 °FMild.3 mph65%30.12 "Hg6 mi
7:20 PM73 °FMild.5 mph65%30.12 "HgN/A
6:20 PM73 °FMild.6 mph65%30.12 "Hg6 mi
Weather by CustomWeather, © 2016

See weather overviewHow to use our weather pages